RH
54 54 53 54 55 54 60 65 69 74 78 80 76 73 74 73 74 74 71 72 83 98 102 99 99 99 99 102 99 88 84 86 82 75 69 67 67 65 63 57 53 56 56 55 55 56 58 54 50 45 40 36 30 27 25 23 25 22 22 23 24 48 86 101 94 97 101 99 101 94 96 107 100 94 96 94 92 88 95 101 90 82 80 78 79
59 59 60 59 56 54 59 67 72 75 73 72 72 70 69 72 75 76 74 72 71 81 96 100 99 100 100 102 101 91 85 81 78 74 68 68 66 64 65 56 47 53 58 59 59 65 69 60 52 48 43 38 32 29 28 26 26 25 24 24 25 28 55 95 103 99 101 99 101 99 96 104 102 98 101 99 93 92 102 107 100 97 95 91 88
55 62 65 62 59 57 60 67 71 72 71 69 68 67 68 71 74 76 76 74 70 69 84 97 101 101 100 104 102 96 94 87 82 75 62 60 59 59 67 57 44 46 52 56 61 76 80 65 56 54 47 41 36 32 32 31 27 31 37 37 42 32 29 72 104 99 100 100 99 101 99 100 101 99 102 101 97 101 108 101 99 107 108 103 99
46 58 65 64 60 61 64 73 79 74 72 69 66 65 66 69 72 75 74 73 72 66 70 84 97 101 99 101 102 100 101 96 90 75 60 62 63 64 70 59 46 43 43 46 60 83 86 70 64 59 51 46 41 36 34 33 27 33 46 51 66 62 31 50 96 103 99 100 99 101 100 99 100 100 103 103 101 107 106 96 99 109 107 106 106
36 44 54 59 59 63 67 77 83 75 70 67 64 65 65 67 69 70 71 71 71 68 65 68 79 93 99 99 101 102 101 99 91 74 67 73 69 69 75 62 49 46 42 42 61 87 87 73 69 61 53 50 44 40 36 33 30 30 36 42 71 95 66 52 84 102 100 101 100 100 100 100 100 99 101 103 103 106 103 96 100 102 100 106 110
29 34 39 48 56 64 69 73 76 71 69 67 64 65 65 66 68 69 71 72 72 70 67 64 65 82 99 101 100 102 100 96 88 78 81 86 77 76 76 62 52 49 46 46 63 87 84 73 71 62 54 53 48 45 40 36 33 28 27 29 56 97 98 81 90 101 100 100 100 99 100 101 100 95 95 102 103 104 104 99 95 87 86 101 112
27 31 31 37 47 59 68 70 72 72 71 69 68 68 68 69 71 72 73 75 76 73 73 72 69 78 97 103 101 102 100 94 91 91 95 96 89 83 73 62 57 53 51 52 63 81 79 71 73 65 58 57 53 49 44 40 35 29 27 24 38 76 102 102 99 101 100 100 100 99 99 101 101 93 91 99 102 102 102 100 97 84 75 89 108
28 30 30 33 38 45 55 62 69 73 74 75 74 74 73 73 73 72 73 73 72 71 74 77 78 82 94 102 101 101 101 96 97 102 101 100 95 85 73 66 62 58 56 55 63 74 70 68 74 72 65 61 57 53 50 46 40 34 28 23 26 47 82 102 101 100 102 99 99 100 99 100 102 99 94 97 100 101 101 100 101 93 81 84 97
32 32 30 31 34 36 40 47 56 64 71 75 77 77 76 75 74 71 70 69 65 64 68 71 75 81 90 97 99 102 101 93 97 104 100 97 94 85 78 73 70 66 59 55 61 67 65 68 77 79 72 66 61 57 53 50 44 37 29 26 24 23 50 89 103 102 102 99 99 101 100 99 101 102 99 98 97 99 102 101 101 100 93 90 94
48 38 33 29 31 33 34 37 42 49 56 64 70 74 75 76 77 75 73 70 66 65 68 68 70 75 79 82 87 95 96 88 92 101 100 98 96 92 87 76 71 66 57 57 64 68 70 75 81 82 76 69 64 57 53 50 46 41 31 26 26 23 38 77 103 104 100 100 100 100 100 99 100 101 101 101 97 96 101 102 101 103 100 96 99
72 41 31 29 29 32 33 35 38 40 44 49 56 61 66 72 76 78 77 75 76 77 75 74 75 77 76 75 79 85 85 82 89 100 101 100 97 94 86 73 66 60 58 67 74 79 83 82 82 82 76 70 66 60 54 52 47 43 36 26 25 25 30 57 92 107 102 98 100 100 100 100 100 101 101 101 99 99 101 101 102 103 101 99 101
82 45 31 31 31 33 33 35 37 37 37 38 42 45 49 57 63 69 74 79 85 87 83 82 82 82 82 84 84 82 80 83 93 101 101 98 92 87 78 68 64 62 68 78 83 87 90 84 81 79 74 70 68 62 56 53 49 43 37 29 24 26 24 31 65 99 105 98 99 100 99 100 101 101 100 99 99 101 101 101 101 100 101 103 101
60 41 34 33 33 35 36 37 36 35 36 34 36 37 37 43 51 61 72 82 87 86 86 88 89 92 93 91 88 84 86 93 100 103 100 93 85 78 73 70 72 75 81 88 92 94 91 84 79 76 72 69 65 62 56 51 50 44 38 31 24 25 26 22 38 77 102 101 97 99 100 100 102 101 100 99 99 101 101 101 101 99 100 102 100
43 36 36 37 36 39 44 45 39 35 36 34 35 37 37 44 52 61 72 79 83 84 88 93 96 98 96 92 93 95 100 104 104 99 91 83 76 70 71 76 84 90 93 98 102 100 94 85 79 73 69 66 63 61 57 52 49 45 39 33 25 23 27 24 26 52 89 102 98 100 103 101 101 101 100 99 100 100 100 100 101 100 100 100 99
47 42 40 41 39 41 44 46 41 36 37 38 39 41 45 50 55 64 75 82 87 92 95 97 96 96 96 97 101 104 106 103 94 84 76 73 71 70 74 82 93 99 100 104 108 104 97 88 81 75 70 66 65 62 57 54 50 45 41 34 27 24 24 25 24 32 67 99 103 101 104 103 100 101 100 99 100 100 100 101 104 101 98 100 100
55 49 45 44 41 42 41 41 40 39 39 40 48 58 66 69 74 83 92 97 99 101 101 100 100 101 101 100 100 100 97 87 74 68 68 71 74 77 84 90 98 103 103 105 105 100 95 90 83 79 74 69 67 63 58 56 52 47 44 36 28 26 24 24 25 23 43 80 101 103 103 101 100 100 100 99 100 101 100 101 104 101 99 101 101
66 57 51 47 44 44 43 43 43 42 41 46 63 82 88 90 97 103 104 104 104 105 104 103 103 104 101 98 98 95 85 75 68 65 63 66 72 79 86 89 91 94 96 96 94 92 90 88 83 80 77 73 69 65 62 59 56 49 45 39 29 27 26 24 25 24 28 50 83 102 103 101 101 100 99 100 101 101 98 98 99 98 100 100 99
76 65 57 53 51 48 47 47 45 46 54 67 84 93 92 95 103 105 104 105 106 106 104 100 99 102 100 98 95 87 80 78 71 59 52 54 62 70 75 77 78 79 82 83 83 84 84 84 83 79 77 75 71 69 65 62 59 50 45 40 31 26 27 25 24 28 29 36 67 98 102 100 102 100 99 100 101 100 99 99 94 93 99 99 98
74 68 62 58 56 53 50 48 49 57 70 80 85 84 85 93 101 104 104 103 102 101 101 100 102 103 101 97 91 85 85 80 69 61 60 62 63 65 65 65 65 65 66 69 71 74 76 80 82 80 79 79 77 75 72 68 62 52 45 40 33 27 27 27 24 27 32 37 63 96 103 99 101 100 99 100 100 99 101 101 93 90 98 100 98
62 64 65 63 59 57 52 49 56 68 74 76 78 81 88 95 100 104 105 99 95 96 99 102 103 101 99 96 92 90 87 78 73 76 78 72 63 60 60 58 56 54 53 54 57 59 64 69 73 77 81 83 84 86 84 78 68 56 48 41 34 29 27 28 25 26 34 41 60 92 104 100 100 100 100 100 100 100 100 102 97 91 94 97 97
57 63 67 65 61 57 52 51 60 69 71 72 79 87 95 101 103 106 105 98 90 89 93 98 99 99 100 98 93 89 84 79 78 79 78 73 62 57 60 60 55 52 49 47 48 49 52 57 62 69 78 82 86 90 90 86 76 62 52 44 37 32 29 29 26 24 33 43 60 90 105 102 101 101 100 100 100 101 100 102 100 94 93 97 97
58 65 71 70 65 59 53 55 60 62 62 64 69 74 81 87 88 87 87 84 81 84 91 95 96 97 96 93 88 84 80 75 71 69 70 69 61 59 63 62 56 53 51 50 50 50 50 53 56 61 70 75 79 84 87 86 80 68 57 48 40 35 31 30 27 23 31 42 59 88 105 102 101 101 100 100 99 99 101 101 100 97 97 100 99
56 64 74 75 71 66 61 60 60 60 59 58 60 64 69 74 75 72 71 69 72 83 92 92 93 95 93 89 87 82 75 69 63 61 62 60 57 60 65 66 62 56 53 52 53 52 51 51 53 55 60 64 67 73 79 80 76 69 64 55 46 40 34 32 29 23 28 38 54 83 102 100 100 101 99 99 99 99 100 101 99 97 97 99 100
50 58 68 68 69 74 71 65 63 62 61 61 63 69 78 88 91 89 87 84 86 92 96 94 92 93 93 90 87 81 75 73 69 65 64 62 59 58 57 60 64 60 55 54 54 54 52 50 50 51 54 57 59 64 70 73 71 67 65 61 55 47 38 34 31 24 26 35 48 78 101 101 99 101 100 99 100 100 99 100 101 99 98 100 100
57 63 65 63 68 78 79 73 68 65 65 67 72 80 91 98 98 97 98 100 101 98 96 96 95 94 91 85 79 77 77 77 74 71 70 66 60 54 49 54 60 58 56 57 56 54 52 50 50 50 52 55 57 60 63 67 69 66 63 61 61 56 44 37 34 27 25 32 49 80 101 101 100 101 100 100 100 101 100 99 101 101 99 101 101
78 84 78 73 76 83 85 80 75 72 72 71 73 84 98 102 100 100 99 98 93 87 87 94 97 93 84 78 76 77 79 78 74 73 73 67 59 52 50 59 64 61 60 61 58 55 52 51 50 49 51 52 55 59 62 65 66 65 62 59 61 61 52 42 36 32 26 27 53 89 102 99 100 100 100 101 99 100 101 99 101 101 99 101 101
91 97 94 92 92 94 93 89 84 82 83 79 75 83 97 101 99 96 92 87 82 81 86 93 95 90 85 84 84 82 79 75 72 73 71 63 55 51 52 62 68 68 69 68 63 58 55 53 52 51 50 50 51 54 59 63 64 64 62 59 58 60 58 49 40 36 29 24 50 93 104 97 101 101 98 102 100 99 101 99 100 101 99 101 101
90 96 98 98 100 103 102 99 98 97 96 94 92 94 99 97 91 87 86 85 85 88 95 99 96 93 91 89 84 77 71 68 65 63 60 57 55 55 58 63 66 67 71 71 67 63 59 55 53 52 51 50 50 50 53 59 63 63 62 61 59 58 57 54 46 41 34 23 42 88 106 98 100 102 98 100 101 100 100 99 98 100 100 100 100
79 87 93 96 99 104 104 102 105 105 102 102 102 103 103 98 92 91 93 93 93 94 95 94 90 87 85 83 78 73 69 66 63 61 62 63 64 64 64 63 62 63 65 65 65 64 61 57 54 53 53 52 51 50 51 55 60 62 62 61 62 61 56 55 51 46 40 27 31 71 103 102 98 101 100 99 100 100 100 98 99 100 101 101 100
71 78 88 94 98 102 102 101 103 103 102 103 103 103 103 99 97 97 98 96 94 93 92 93 94 92 90 87 83 77 72 68 67 66 67 68 68 68 67 65 63 63 63 64 65 62 60 58 56 55 55 54 53 52 51 53 57 63 66 64 62 61 57 55 53 49 46 35 26 48 87 104 101 99 100 100 101 101 100 100 100 100 101 101 99
70 74 84 92 98 101 102 101 101 102 103 104 103 102 102 101 101 101 101 99 98 98 100 102 101 97 93 88 82 75 70 66 65 64 63 65 67 67 66 65 65 65 64 64 63 61 60 59 59 59 58 56 55 54 52 52 54 59 68 72 68 62 56 54 54 51 48 43 32 31 58 91 103 101 99 100 100 100 101 100 99 99 100 100 97
68 71 83 95 101 103 103 102 102 102 102 102 103 105 107 106 104 102 101 100 99 98 99 99 96 93 90 85 77 70 64 61 60 59 60 62 65 66 66 66 66 65 64 63 63 63 62 62 62 61 60 58 56 56 54 53 54 55 62 71 75 71 62 54 52 53 50 47 41 32 39 66 92 101 101 100 100 100 101 101 99 100 100 99 100
72 71 85 102 108 106 103 101 101 101 101 102 104 106 106 104 102 100 98 97 97 95 95 96 94 92 88 81 74 67 62 60 59 58 59 61 64 66 67 68 68 68 68 67 65 64 62 61 62 62 62 61 59 57 56 54 55 55 57 63 70 74 73 64 54 51 50 49 46 39 36 49 76 97 102 100 100 100 99 101 101 100 100 100 101
83 71 82 105 113 108 104 102 101 102 100 101 102 102 101 101 101 101 100 100 100 100 99 97 94 90 86 81 75 70 66 63 61 60 62 64 67 70 71 73 74 73 71 68 64 61 59 59 61 62 63 63 61 58 56 54 53 54 55 56 60 65 72 72 64 55 50 50 49 45 39 40 60 90 105 102 100 100 100 100 101 101 100 100 101
97 77 81 103 111 107 107 104 101 101 101 100 101 101 101 102 103 104 105 105 106 105 101 97 93 88 85 81 76 71 67 63 61 62 65 70 73 75 76 77 76 73 69 66 62 59 57 57 58 60 61 61 61 59 57 55 54 53 53 53 54 57 62 67 70 65 56 51 50 49 45 38 43 70 97 106 102 101 101 100 100 101 101 99 100
107 89 86 102 111 109 109 104 98 100 101 99 100 101 103 105 106 106 107 106 106 105 99 94 91 88 83 78 72 68 64 62 63 68 75 79 80 80 79 77 74 69 66 63 60 58 57 57 57 58 58 57 57 57 57 56 55 53 53 52 52 54 55 58 63 67 65 58 52 50 49 45 39 47 73 99 106 102 100 101 100 100 101 100 99
111 97 85 93 105 109 106 101 99 101 100 99 103 106 106 107 107 106 105 104 102 102 99 96 93 87 79 73 68 64 62 64 71 81 85 85 82 80 77 72 68 64 61 58 56 55 55 56 57 57 56 55 54 54 53 54 54 53 52 53 53 53 54 55 56 60 65 64 59 54 49 48 45 41 51 79 101 103 100 101 102 99 100 101 100
108 98 84 80 93 104 103 100 100 101 100 102 106 107 106 105 104 103 102 100 100 103 103 97 89 79 70 65 63 64 66 70 78 85 86 83 79 75 71 66 62 59 56 54 54 55 55 56 55 54 53 53 52 52 51 51 52 53 52 53 53 53 53 54 54 55 59 62 63 61 54 49 48 45 43 58 84 101 102 100 102 101 99 99 101
96 100 89 77 85 102 105 102 101 100 102 105 106 105 103 102 101 100 100 101 101 101 97 90 80 71 67 66 67 70 76 80 82 83 81 77 73 69 64 61 58 57 56 56 56 57 56 55 53 52 51 50 49 48 48 48 48 49 50 50 51 51 51 52 52 51 53 56 59 60 57 52 50 48 45 46 61 85 100 101 99 101 101 100 100
93 103 95 80 85 102 106 104 103 104 105 107 105 102 101 101 100 101 102 101 97 91 86 81 75 71 71 73 75 78 85 87 83 80 77 73 70 66 63 62 62 61 60 59 58 57 56 53 52 50 48 47 46 45 45 45 44 44 44 44 45 46 47 47 49 48 48 49 53 54 55 55 52 49 48 45 47 61 84 99 101 100 100 101 100
100 104 96 85 93 106 108 106 107 109 108 105 103 102 101 101 100 99 95 90 85 83 83 79 75 74 76 79 79 82 87 87 83 79 77 74 71 70 70 69 66 63 61 60 58 55 52 50 49 48 47 46 45 44 42 41 40 40 39 38 38 39 40 40 42 43 43 43 45 48 49 52 53 51 49 48 46 46 58 79 96 102 100 99 100
106 104 94 92 102 110 109 108 110 110 106 101 99 99 96 93 90 86 84 83 85 87 86 81 77 78 79 81 83 86 88 86 82 80 79 78 77 77 75 71 67 64 61 58 54 51 49 48 47 45 45 44 43 42 42 40 39 38 37 36 35 34 34 34 34 36 38 38 40 43 45 46 49 51 50 48 48 47 46 54 72 90 100 101 100
105 99 95 100 108 111 110 110 110 104 95 90 89 87 84 82 81 82 85 89 91 88 82 78 78 80 81 83 87 89 88 85 84 85 85 85 82 79 75 72 68 64 58 53 49 47 45 45 44 43 42 42 41 40 39 37 36 34 32 31 30 29 28 28 27 27 29 30 32 34 38 40 43 47 50 49 48 48 49 47 50 64 83 97 101
96 95 98 104 109 110 110 109 104 94 85 81 83 85 84 85 87 90 92 91 87 81 77 79 82 83 83 85 87 89 90 91 92 91 90 87 83 78 74 69 63 57 52 49 47 45 44 43 42 41 40 38 36 34 33 32 31 31 30 28 26 26 26 25 25 25 24 26 27 27 29 32 35 39 45 48 48 47 49 50 49 49 57 73 90
92 97 102 106 108 108 107 104 99 94 90 89 90 91 92 92 93 93 90 85 82 81 83 87 88 86 85 89 92 94 96 96 94 92 89 86 80 73 66 59 54 51 49 48 47 46 45 43 40 37 35 34 34 34 33 31 29 27 25 23 21 20 20 19 19 20 20 21 23 24 25 27 30 33 35 40 45 47 47 48 51 51 49 51 63
96 101 104 106 107 105 103 99 96 96 96 96 94 92 90 88 86 84 83 83 85 86 86 89 90 90 93 96 98 98 97 95 92 89 84 76 68 60 55 52 51 50 49 49 48 45 41 39 37 37 38 37 34 31 27 23 21 19 17 16 16 15 14 14 14 14 15 15 15 18 20 22 26 31 33 34 37 42 45 47 48 51 53 50 49
104 106 106 105 103 101 98 94 91 90 90 89 87 85 84 83 81 82 84 86 86 86 87 91 94 96 98 98 98 96 94 89 84 76 68 61 56 54 54 54 53 52 50 47 43 40 39 41 41 40 36 30 25 22 20 18 17 16 14 13 13 13 12 12 12 12 12 13 12 13 14 16 19 24 29 34 36 37 40 43 44 47 51 53 52
109 110 107 104 101 98 94 91 89 88 87 86 84 82 82 83 83 86 90 89 87 88 92 95 97 99 99 98 95 91 83 74 66 60 57 57 57 57 57 56 54 50 46 42 42 44 45 43 37 30 25 22 20 19 19 18 16 14 12 11 11 11 11 10 10 10 10 10 11 11 12 14 15 16 19 26 32 36 39 40 41 44 47 50 52
107 108 104 101 100 98 96 95 94 92 90 89 89 89 89 89 89 92 95 94 93 95 98 100 100 100 96 90 82 73 65 59 57 58 59 61 61 59 57 53 49 45 44 47 50 49 42 34 28 24 23 22 21 19 18 18 17 16 14 11 10 10 11 10 10 9 9 9 9 9 10 12 13 15 16 18 21 28 37 42 43 43 44 46 48
106 104 102 101 102 101 99 97 97 96 97 99 100 99 97 96 95 96 97 99 101 103 103 100 96 88 80 71 64 59 59 60 62 63 62 61 58 55 51 48 47 49 52 52 46 38 31 28 27 27 25 24 23 22 20 19 18 17 15 13 11 10 10 10 10 9 8 8 9 9 9 11 12 14 16 17 16 19 28 38 44 46 45 45 44
100 98 99 100 100 99 99 100 103 105 105 104 102 100 98 99 101 102 102 103 104 101 95 87 78 70 64 61 61 63 65 66 64 62 58 55 51 49 50 52 55 55 50 42 35 30 29 30 29 28 28 26 25 22 20 18 17 16 14 13 12 11 10 10 10 10 9 8 9 9 9 10 11 12 13 15 16 17 19 26 35 43 48 47 44
Wind_Speed
59 59 59 59 58 57 56 56 55 55 54 52 52 52 52 52 50 50 50 49 45 41 39 36 35 35 36 36 34 33 34 34 36 37 38 38 39 40 41 42 42 41 42 42 43 45 45 46 46 46 45 44 43 41 40 39 38 38 37 35 34 34 38 41 41 38 37 37 37 37 35 33 33 33 33 32 30 27 24 21 20 18 18 20 21
60 60 60 60 59 59 58 57 56 56 56 55 54 54 54 53 52 51 51 51 47 43 41 39 36 36 38 39 37 37 37 37 38 39 40 41 42 42 42 42 41 41 42 44 45 45 46 46 46 45 44 44 43 41 40 37 36 35 35 34 34 34 37 40 41 40 38 37 38 38 36 34 34 35 36 34 31 29 27 25 23 20 20 21 22
60 61 61 62 61 60 59 59 58 58 57 57 56 56 55 55 54 53 52 52 50 47 45 45 42 39 40 39 38 37 38 39 40 41 42 43 44 44 43 42 41 42 43 44 45 46 46 46 45 44 44 44 43 42 41 39 36 32 31 32 32 33 36 38 40 41 40 38 38 40 39 37 37 39 39 37 35 32 29 28 26 23 23 23 23
59 62 63 63 63 61 60 60 59 59 58 58 58 57 57 56 56 55 54 53 52 50 49 48 46 43 42 42 40 39 39 41 42 42 43 43 44 44 42 41 41 42 43 44 45 45 45 44 43 42 43 43 43 43 42 41 38 34 30 30 30 31 35 37 39 40 40 38 37 40 41 40 41 42 41 39 39 36 33 31 29 26 25 24 24
56 60 63 63 63 62 61 61 60 59 59 59 59 58 58 57 57 57 56 55 54 53 52 51 49 46 45 46 47 46 45 44 44 44 44 43 43 43 41 41 42 43 44 45 45 45 44 43 42 42 42 43 43 43 42 41 39 37 33 31 30 29 32 35 37 39 40 39 37 39 41 41 43 43 40 40 41 40 37 33 31 30 27 25 26
55 56 59 61 62 62 62 61 61 60 60 59 59 58 58 58 58 58 57 56 55 54 53 52 51 49 48 49 50 50 49 47 46 45 44 43 42 41 41 42 44 45 46 46 45 45 44 43 42 42 42 43 43 43 43 42 40 38 35 32 31 31 31 32 35 38 39 40 39 39 41 42 43 42 39 41 42 41 39 35 33 31 29 27 27
53 54 55 57 59 61 62 62 61 61 60 60 59 58 58 58 58 58 57 57 56 54 53 52 51 50 49 50 50 49 48 47 46 45 44 43 42 42 42 44 45 46 48 47 46 45 44 43 42 42 42 42 43 43 43 43 42 39 36 33 32 32 33 33 33 35 39 41 40 39 39 41 42 42 41 42 44 43 41 38 35 34 32 30 28
52 53 54 54 56 58 60 61 61 61 61 60 59 59 59 59 58 58 57 57 56 55 53 52 51 50 49 50 50 49 48 46 45 44 43 43 44 44 44 45 46 48 48 48 47 46 44 43 43 43 43 43 43 43 44 44 44 42 38 35 33 32 35 36 33 33 38 42 43 42 40 40 42 44 44 45 46 45 44 42 39 37 34 32 31
52 54 54 53 54 55 56 58 60 61 61 60 60 59 59 59 58 58 57 57 56 56 55 54 52 51 51 51 51 51 49 48 46 45 45 45 45 46 46 47 48 49 49 48 47 46 45 44 44 43 43 43 44 44 44 44 44 43 41 38 35 33 35 38 36 36 38 41 43 44 42 39 40 42 44 45 45 45 45 43 41 39 36 34 33
51 54 54 53 52 52 53 55 56 58 59 59 60 60 60 59 59 58 58 57 57 56 56 55 54 53 52 52 53 52 51 50 49 49 49 49 49 49 50 50 51 51 50 48 47 46 45 44 44 44 44 44 45 45 44 45 45 45 43 40 38 33 32 37 39 40 41 41 43 45 42 40 39 40 42 43 43 44 45 43 41 40 38 37 35
50 52 54 53 51 51 51 51 53 55 56 57 58 59 60 59 59 58 58 57 57 57 56 55 54 53 53 53 53 52 52 51 51 52 53 53 53 53 52 52 52 52 50 47 46 46 45 45 45 45 45 46 46 46 45 45 45 46 44 42 40 35 33 36 40 41 42 42 45 47 46 43 42 41 43 42 41 42 43 42 42 41 40 37 36
51 51 52 53 51 50 50 50 52 53 54 54 56 58 58 58 57 57 56 56 56 57 56 56 55 55 54 54 53 53 53 53 53 54 54 54 54 53 53 53 52 51 48 46 45 45 45 45 45 45 46 47 47 47 46 46 46 46 46 43 41 38 35 37 41 42 43 43 45 48 48 47 46 45 45 44 41 41 42 42 42 41 39 38 36
54 52 52 52 51 49 49 49 50 51 51 52 54 55 55 54 54 54 55 55 56 56 56 56 55 55 55 55 54 54 53 53 54 54 54 54 53 53 52 52 51 49 47 45 44 44 44 45 45 46 48 48 49 48 47 47 47 47 47 45 42 39 37 36 42 46 46 45 47 49 48 48 49 48 47 45 42 42 41 40 40 39 39 39 38
53 51 51 51 50 49 48 48 48 49 49 50 51 52 51 51 51 52 53 53 54 55 55 55 55 55 54 54 54 53 53 53 53 54 53 53 52 52 51 50 49 48 47 46 45 44 45 45 46 48 49 50 50 49 48 48 48 48 48 46 43 40 38 36 40 47 48 47 48 50 51 50 50 50 49 47 45 43 40 39 39 39 39 40 40
50 49 49 49 49 49 48 47 47 47 48 49 50 49 49 49 49 49 49 50 52 52 53 53 53 53 53 52 52 52 52 52 53 53 53 52 51 51 50 50 49 49 49 48 47 46 46 47 48 49 50 51 51 50 49 49 49 50 49 47 44 41 39 36 38 46 50 50 48 50 52 52 51 51 49 48 47 45 42 40 39 37 36 39 40
49 49 48 48 48 48 48 47 46 46 47 48 47 46 46 47 46 46 47 48 50 50 51 51 51 51 51 51 51 52 52 53 54 54 52 52 51 51 51 51 51 51 51 50 49 49 50 50 51 52 53 53 53 53 52 50 50 50 50 48 46 43 40 36 36 42 50 52 50 50 52 51 50 49 46 45 46 46 45 43 39 35 35 38 39
49 49 48 46 46 46 46 46 45 45 46 47 46 45 46 46 45 46 48 49 50 50 50 50 50 51 51 52 52 53 54 54 54 53 53 52 52 52 52 53 53 53 53 53 52 52 53 53 54 54 54 55 55 55 54 53 51 50 50 49 46 43 40 37 34 39 46 49 49 50 51 51 51 49 45 43 44 45 46 44 40 35 35 38 39
52 49 48 45 45 45 45 45 45 45 46 46 46 47 47 46 46 48 49 50 50 49 50 51 51 52 52 53 53 54 54 54 53 53 53 53 53 54 55 55 55 56 55 55 55 55 56 56 56 56 56 56 56 56 55 54 53 50 49 48 46 43 40 37 34 37 44 47 47 49 49 50 51 50 47 45 43 43 43 43 41 38 36 39 42
53 50 48 46 45 45 45 45 44 44 45 46 46 46 47 47 47 49 49 50 49 49 50 50 51 52 52 53 54 55 54 53 52 51 51 50 51 51 53 54 55 56 57 57 58 58 58 58 58 58 57 57 56 56 56 55 54 52 49 47 45 43 40 37 33 36 42 46 47 49 50 49 49 49 49 48 45 43 42 42 43 41 39 40 42
52 50 48 46 45 46 45 44 43 44 44 44 44 45 46 47 48 49 50 50 50 50 50 50 51 52 53 54 54 53 53 51 49 49 48 48 48 49 50 51 51 52 54 55 56 57 58 59 59 59 58 57 56 55 55 55 55 53 50 46 44 42 40 37 33 35 41 45 47 50 52 51 49 48 49 50 48 46 44 43 42 42 42 42 43
50 49 48 47 46 47 45 43 44 45 44 43 44 44 45 47 49 51 52 52 52 52 51 51 51 52 53 53 52 51 51 50 49 48 48 48 49 50 50 50 50 50 51 51 52 54 55 56 57 57 56 56 55 54 54 54 54 53 50 47 44 42 40 37 34 34 40 45 47 49 52 53 52 50 50 51 50 48 47 44 42 41 43 44 45
49 48 48 48 47 47 45 43 45 46 45 45 45 46 47 48 50 52 53 54 53 53 52 51 51 51 51 51 50 51 51 50 50 50 50 51 51 51 51 51 51 51 50 50 50 51 51 52 54 54 54 54 54 53 52 52 52 52 51 47 44 42 40 37 34 34 40 44 46 49 51 52 52 50 49 48 47 47 47 47 45 44 45 46 47
49 48 49 49 48 48 46 45 46 46 46 46 46 47 48 49 49 50 51 52 53 52 52 51 51 50 50 50 50 51 51 52 53 52 52 52 52 51 51 51 50 50 50 50 49 50 50 50 51 52 53 53 52 52 51 50 50 50 50 48 45 42 40 38 35 33 39 44 46 50 51 52 52 50 49 47 45 45 46 48 49 48 47 47 48
48 49 50 50 49 48 47 47 47 46 47 47 47 48 48 48 48 48 48 50 50 51 51 51 51 51 51 52 52 53 54 54 54 54 54 53 51 51 51 52 51 51 51 50 50 50 49 50 50 51 51 52 52 51 50 49 49 48 47 47 45 43 41 38 35 33 38 44 47 51 53 53 53 52 51 49 47 47 47 48 50 52 51 49 50
48 49 50 50 49 48 48 48 47 47 47 47 47 48 48 49 48 48 48 49 49 50 51 52 53 53 54 54 54 55 55 55 55 55 54 52 52 53 53 53 53 52 51 50 49 49 49 49 49 50 50 51 51 51 50 49 48 47 46 45 44 43 41 39 36 33 36 44 48 52 54 54 54 54 54 52 51 51 50 50 51 54 55 55 53
48 49 49 49 49 48 48 47 47 47 48 48 48 49 49 49 49 49 49 49 50 50 52 53 54 55 56 56 55 55 56 56 56 55 54 54 55 56 54 53 52 52 50 49 49 48 48 49 49 50 50 50 51 51 51 49 48 47 45 44 43 42 41 40 37 33 34 42 49 53 55 54 54 55 56 55 54 54 54 54 53 54 57 58 57
49 49 49 49 49 49 48 48 47 47 49 50 50 50 50 50 50 50 49 50 50 51 52 53 55 56 56 55 55 56 57 58 58 57 57 58 59 57 55 53 52 51 50 49 49 50 50 51 51 51 51 51 51 51 51 50 49 47 46 44 42 41 41 40 38 35 33 40 50 55 56 55 55 56 57 56 55 55 55 55 56 56 57 58 58
52 52 51 49 48 49 48 47 46 47 49 50 50 50 51 51 51 50 49 49 50 51 52 53 54 55 55 55 56 58 59 59 60 60 60 60 59 58 56 54 53 52 52 52 52 53 54 54 54 53 53 53 52 52 51 51 50 49 47 45 43 42 40 39 39 36 34 37 49 57 59 58 57 58 58 58 57 56 55 55 55 55 56 57 57
53 54 52 50 49 49 48 47 47 48 49 49 49 50 50 50 49 48 48 49 50 51 52 53 54 55 56 57 58 59 60 60 60 59 58 57 57 57 57 56 56 55 55 55 56 57 57 57 57 56 55 54 53 53 52 51 51 50 48 46 44 43 41 39 39 38 35 35 45 57 62 61 61 60 60 60 60 58 57 56 55 55 56 57 57
52 53 53 51 49 48 48 49 49 49 49 49 49 50 49 49 48 48 48 50 51 52 52 53 54 55 56 57 58 59 59 58 57 57 57 57 57 57 58 59 58 58 57 58 59 59 60 59 59 58 57 56 55 54 53 52 51 51 51 49 46 44 42 41 40 39 37 36 40 53 62 64 63 63 63 62 63 62 61 60 58 56 56 57 57
50 51 52 53 51 49 49 50 51 51 50 50 50 50 50 49 49 49 50 51 52 52 52 52 53 54 55 57 58 58 58 58 59 59 60 60 60 60 61 61 61 60 60 61 61 62 62 61 60 59 58 57 57 56 55 54 52 51 51 51 49 47 45 42 41 40 39 37 38 47 59 65 66 66 65 65 65 65 64 63 62 58 56 56 55
47 48 50 52 53 52 52 52 51 51 50 50 50 50 50 50 50 50 50 50 51 51 51 52 53 54 56 58 59 60 61 61 62 62 62 62 62 63 63 63 63 63 63 63 63 62 62 61 60 60 59 59 58 58 57 56 55 53 52 51 51 50 48 46 44 42 40 39 39 43 53 63 67 67 67 66 65 65 64 64 64 62 60 58 55
47 48 49 52 53 54 53 52 51 50 49 49 50 50 50 49 49 49 49 49 49 50 50 51 53 55 56 59 60 62 62 63 63 63 64 64 64 64 64 64 64 64 64 63 63 62 61 61 60 60 60 59 59 59 58 58 57 56 54 53 52 51 51 50 47 45 43 41 41 42 48 58 66 69 70 69 68 66 65 65 65 64 63 62 60
48 48 49 52 54 54 52 50 49 49 50 50 49 49 49 49 49 48 48 48 49 49 50 52 53 55 57 59 61 62 63 64 64 64 64 65 64 64 64 64 63 63 63 62 62 62 61 61 61 60 60 60 60 60 60 59 59 58 57 56 55 54 53 52 51 49 47 44 43 43 46 52 61 68 71 72 72 71 69 68 67 66 65 66 66
49 49 49 52 54 54 52 51 50 50 50 49 49 49 48 48 48 48 48 49 49 50 52 53 55 56 58 60 62 63 64 65 65 65 65 64 64 64 63 63 63 63 62 62 63 63 63 62 61 61 61 61 61 61 61 61 61 60 59 59 58 56 55 55 53 52 51 49 47 46 46 49 56 64 69 71 73 74 74 73 71 69 67 67 68
49 48 49 52 55 55 54 52 50 49 49 48 48 48 48 49 49 49 49 50 51 52 53 55 56 57 59 61 62 63 64 64 64 64 63 63 63 62 62 62 63 63 63 64 64 64 64 63 63 62 62 62 62 62 62 62 62 62 61 61 60 59 58 57 56 55 54 53 51 49 49 50 53 59 66 71 72 74 76 77 76 74 71 68 68
49 49 50 53 56 57 55 53 50 49 48 48 48 48 49 49 49 49 50 51 52 54 55 56 57 58 60 61 61 62 62 62 62 62 62 62 62 62 63 63 64 64 65 65 65 65 65 64 64 64 64 64 63 63 63 63 64 64 63 63 62 62 61 60 58 57 57 56 55 53 53 52 52 56 62 69 73 72 73 76 79 78 76 73 71
50 50 50 52 55 57 56 54 52 50 49 49 49 49 49 50 49 50 51 52 54 55 57 58 59 60 60 61 61 61 61 61 61 61 62 62 62 63 64 65 66 66 66 66 66 66 66 65 65 65 65 65 65 65 65 65 65 65 65 65 65 64 64 63 62 60 59 59 58 57 57 56 55 55 58 65 72 75 74 74 76 79 79 78 76
51 50 50 51 53 57 57 55 53 52 51 51 51 51 51 51 51 52 53 55 56 58 59 59 60 60 61 61 62 62 62 62 62 62 62 63 64 65 66 66 67 67 67 68 68 68 68 67 67 67 67 67 67 67 67 67 67 67 67 67 67 67 66 66 65 64 62 61 61 61 60 59 59 59 58 61 68 75 78 76 75 76 78 79 79
51 50 50 51 52 54 56 55 54 54 53 53 53 53 53 53 54 55 56 58 58 59 60 60 61 61 62 62 63 64 63 63 63 63 64 64 65 67 67 68 68 69 70 71 71 70 70 70 69 69 69 69 69 69 69 70 70 70 69 69 69 68 68 68 67 67 66 64 64 64 63 62 62 62 61 61 63 70 77 81 80 78 77 79 81
51 50 50 51 51 53 54 55 55 55 55 54 54 54 55 55 56 57 58 59 59 60 60 61 62 63 63 64 64 64 63 62 63 63 64 66 67 68 69 70 71 72 73 73 73 72 72 72 72 71 71 72 72 72 72 72 72 72 72 71 71 70 70 69 69 69 69 67 66 66 66 65 65 65 64 64 63 65 71 79 84 85 83 80 80
51 51 50 51 52 53 54 55 55 55 55 55 55 56 56 57 57 58 59 59 60 61 62 63 64 64 65 65 64 62 62 62 63 64 66 68 69 71 72 74 75 75 75 75 75 74 74 73 73 73 73 73 73 73 74 74 74 74 74 74 73 73 72 71 71 71 70 70 69 69 69 68 67 67 67 67 66 66 68 73 81 87 88 86 83
51 51 51 51 53 54 55 56 56 57 57 56 56 56 57 57 57 58 59 60 61 62 64 65 65 65 65 64 62 61 61 63 64 66 68 70 72 74 75 77 77 78 77 77 76 75 74 74 74 73 73 73 74 74 75 75 75 76 76 75 75 74 74 73 72 72 72 71 71 71 71 71 70 70 70 70 69 69 70 71 74 81 88 91 90
50 50 51 52 53 54 55 56 56 56 56 56 56 56 57 57 57 58 59 61 62 64 65 65 65 64 62 60 59 61 62 64 66 69 71 73 75 77 78 78 79 78 78 77 76 75 74 74 74 74 74 74 74 74 74 74 74 74 74 74 73 72 72 71 71 71 70 70 71 71 71 71 72 72 72 73 72 72 72 72 73 76 82 88 92
49 50 51 52 53 54 54 55 55 55 55 56 56 56 56 57 58 59 61 62 64 65 65 64 62 60 59 59 60 62 65 67 70 72 75 76 78 79 79 79 79 78 77 76 75 75 75 75 75 75 74 74 73 72 72 71 71 71 70 70 69 69 68 67 67 68 67 67 68 69 69 69 70 71 73 74 75 74 74 74 75 76 79 82 86
49 50 50 51 52 53 54 54 55 55 55 56 56 57 58 58 59 61 62 63 64 63 62 60 58 58 59 61 63 66 69 71 73 75 77 78 79 79 79 78 78 77 76 75 75 75 75 74 74 73 72 71 70 69 68 67 66 66 65 64 63 63 62 61 61 62 63 63 64 65 67 67 67 69 71 72 74 76 77 77 77 78 79 81 82
48 50 51 51 52 53 54 54 55 55 56 57 57 58 58 59 60 61 61 61 60 58 57 57 58 60 62 65 68 70 72 74 75 76 77 78 78 78 77 77 76 76 75 75 75 74 73 72 71 70 69 67 66 65 63 62 61 61 59 58 57 57 57 57 56 56 57 58 59 59 61 63 65 67 69 70 72 75 77 78 78 79 80 82 83
47 49 50 51 52 53 53 54 54 55 56 57 57 58 58 58 58 58 57 57 56 56 57 59 62 64 66 68 70 72 74 75 76 76 76 76 76 76 75 75 75 75 75 74 73 72 71 70 68 67 65 63 61 59 59 59 58 58 56 54 51 51 51 52 52 51 52 53 54 54 55 58 60 63 65 68 71 72 74 76 78 79 82 84 85
47 49 50 51 51 52 52 53 53 54 55 55 56 56 55 55 55 54 54 55 57 58 60 62 64 66 68 70 72 73 75 75 75 75 74 74 74 74 74 75 74 74 72 71 70 69 68 66 65 63 61 59 58 57 55 55 55 56 55 53 50 47 47 47 48 48 47 48 49 49 49 52 55 57 60 65 68 69 70 74 76 78 82 84 87
47 48 48 49 49 50 50 51 51 52 53 53 53 52 52 52 52 53 55 56 58 61 63 65 66 68 70 71 72 73 73 73 73 73 73 72 73 73 73 73 72 70 69 68 66 65 63 61 60 59 58 57 56 54 53 52 52 52 52 52 49 46 44 44 44 45 45 44 44 45 45 47 50 53 57 61 63 64 68 72 75 76 80 83 87
45 45 46 47 48 48 49 49 49 49 49 50 50 50 51 51 53 55 57 59 61 63 65 67 68 70 70 71 71 71 70 71 71 72 72 71 71 71 70 69 68 67 66 64 61 59 58 56 55 55 55 54 53 52 50 49 48 48 48 48 47 44 42 41 41 42 42 41 40 41 42 44 47 50 53 57 59 60 64 70 73 75 78 81 83
Wind_Direction
243 243 243 243 243 243 244 245 246 248 249 251 252 253 255 257 258 259 261 262 262 263 266 269 269 270 274 275 275 275 277 278 281 285 289 291 292 293 291 288 289 290 291 293 294 296 298 299 299 300 302 304 305 304 304 303 301 299 295 288 278 264 256 256 261 260 256 257 258 259 261 264 265 267 270 270 273 275 273 277 283 285 288 290 291
242 243 243 243 244 244 244 245 246 247 248 250 251 253 254 256 258 259 260 261 261 261 261 264 267 271 274 275 272 271 274 277 281 285 289 290 291 292 290 287 286 288 290 291 293 294 296 298 300 302 305 308 309 308 307 305 303 300 297 291 283 270 258 251 253 258 255 253 255 256 257 260 263 266 268 270 271 272 270 271 276 283 286 287 289
242 243 243 244 244 244 245 246 247 248 249 250 251 252 253 255 257 259 261 261 261 261 261 262 265 268 271 272 271 270 272 275 280 284 287 288 289 290 289 286 286 288 289 290 291 293 295 298 301 304 307 309 310 311 310 309 306 302 298 292 285 276 264 253 249 253 255 254 254 254 254 256 260 263 266 270 271 269 266 266 271 278 281 282 286
243 243 243 244 244 244 245 247 247 248 249 250 251 252 253 255 257 259 261 262 262 262 262 264 265 265 267 269 270 272 274 275 279 283 285 287 288 288 285 282 285 288 289 290 291 292 295 298 300 302 305 307 309 310 311 311 309 305 301 295 288 279 269 258 249 248 251 254 256 255 254 254 256 260 265 269 268 265 265 265 266 270 273 278 281
244 243 243 244 245 245 246 247 247 248 250 251 252 253 254 256 258 259 261 262 263 263 263 264 266 265 265 267 269 272 275 277 279 283 285 286 286 285 281 280 284 288 290 291 291 292 294 296 297 299 301 304 306 308 309 310 310 307 304 298 287 279 272 263 252 247 248 251 256 258 258 256 257 259 263 265 264 264 266 265 263 264 267 272 276
244 244 243 243 244 245 246 247 248 249 250 251 252 254 255 257 258 259 261 262 264 264 264 264 265 264 264 268 271 273 276 279 281 283 284 284 283 281 279 280 284 288 291 292 290 290 292 293 294 295 298 301 304 307 308 309 309 307 305 299 286 275 271 265 254 249 248 248 250 255 260 259 259 259 260 262 262 263 264 263 261 260 261 265 271
244 245 245 244 244 244 245 246 248 249 250 251 252 254 255 256 257 259 260 262 263 264 265 264 264 265 266 269 273 275 278 281 283 283 283 281 280 278 278 281 285 288 291 291 288 288 289 289 291 293 296 299 302 305 307 308 308 306 305 300 288 274 269 266 258 251 250 249 247 249 256 259 259 259 259 260 263 263 262 261 259 259 259 261 265
245 246 246 245 244 244 244 245 247 248 249 251 252 253 254 255 257 258 260 261 262 264 265 265 265 265 266 269 273 276 279 282 282 282 280 278 277 277 279 283 286 289 290 288 286 285 286 287 289 292 294 297 300 302 305 307 307 306 305 302 293 277 265 264 262 255 250 249 248 248 252 257 260 260 260 260 262 263 262 260 260 261 261 260 261
245 246 246 246 245 245 245 245 246 247 249 250 251 253 254 255 256 258 259 261 262 263 265 266 266 266 266 268 271 274 277 280 280 280 279 278 278 279 281 284 286 288 287 285 284 283 284 286 288 290 292 295 297 300 303 305 306 306 305 303 297 283 266 260 259 256 251 247 246 247 248 252 256 258 259 259 260 261 261 261 262 262 262 261 260
245 245 246 246 246 246 246 247 247 248 249 250 251 252 254 255 256 258 259 261 263 264 265 266 267 268 268 269 271 273 275 277 278 278 278 279 280 282 283 285 286 286 285 283 283 283 285 287 289 290 290 293 295 298 301 303 305 305 305 303 300 290 271 259 255 254 250 244 242 243 242 243 248 252 255 257 259 260 260 261 262 260 260 261 260
244 245 246 247 247 247 247 247 248 248 249 249 250 252 253 254 255 257 259 261 263 264 266 267 268 269 270 271 271 273 275 276 277 278 278 280 281 282 284 285 286 286 284 283 283 285 287 289 290 289 289 291 293 297 300 303 304 305 304 304 301 294 275 258 253 252 249 244 241 241 239 239 242 247 250 253 255 257 258 259 260 259 260 260 260
244 247 248 247 247 246 246 247 248 249 249 250 251 251 252 253 255 257 259 260 262 264 266 267 269 270 271 272 273 274 275 276 277 277 278 280 281 282 283 284 285 285 284 284 285 286 288 289 289 289 289 290 292 295 299 302 304 304 304 304 302 297 283 263 252 249 246 242 239 238 238 239 240 243 246 249 251 253 255 258 260 261 261 259 259
244 246 247 247 246 246 246 246 247 249 250 251 252 253 254 255 256 257 258 260 262 263 265 267 268 270 271 272 274 275 276 276 277 277 278 279 281 282 283 283 283 283 284 285 286 288 289 289 289 289 289 290 292 294 298 301 303 304 304 304 302 298 290 271 252 245 243 241 238 236 236 238 241 242 243 244 247 250 254 258 260 260 261 261 262
244 244 245 246 245 245 245 246 247 249 250 252 253 254 256 256 257 258 259 260 261 263 264 266 267 269 270 272 273 274 275 276 276 277 278 279 280 281 281 281 281 282 284 285 287 288 289 289 289 289 289 290 292 295 298 301 303 304 304 304 303 299 294 279 256 245 242 241 240 237 236 238 241 243 242 241 243 247 251 255 257 258 260 264 265
243 243 243 243 244 244 244 245 246 248 249 251 252 254 256 257 257 258 258 260 261 262 263 265 266 268 270 271 272 273 274 275 276 277 278 278 279 279 279 280 280 281 283 284 285 286 287 288 288 289 289 291 292 294 297 300 302 304 304 304 304 301 296 285 263 247 242 241 240 237 235 237 239 241 243 243 244 246 247 249 253 257 261 263 264
243 244 243 242 243 244 245 246 246 247 248 249 251 252 254 255 256 257 258 259 260 261 263 264 266 268 269 270 272 273 273 275 277 277 277 277 277 278 279 279 280 281 282 283 284 285 285 286 287 288 289 290 292 294 296 299 301 303 304 304 304 303 299 290 270 251 243 241 240 236 234 235 237 238 241 245 246 247 248 248 250 254 259 262 265
244 245 245 244 244 245 246 247 247 247 248 248 249 250 251 252 254 256 257 258 259 261 262 264 266 267 269 271 271 272 274 276 277 277 278 277 277 277 278 278 279 280 281 282 283 284 285 286 286 287 289 290 292 294 296 298 300 302 303 303 304 304 301 293 274 254 244 240 238 235 234 235 237 235 236 241 244 247 248 249 250 252 256 261 265
243 244 245 245 246 247 247 247 247 247 248 248 248 248 249 251 253 254 255 257 258 260 262 264 266 268 269 270 271 273 274 276 278 278 279 278 278 278 278 278 278 279 280 281 282 283 284 285 286 287 289 290 292 293 295 297 299 300 301 302 303 304 303 296 278 256 245 240 234 231 231 233 234 232 231 234 239 244 246 247 248 248 251 255 258
242 243 244 245 246 247 247 247 247 247 248 248 249 250 250 251 252 253 254 256 257 260 262 264 266 267 268 270 272 274 275 277 278 279 279 279 280 280 280 280 279 279 279 280 281 282 283 284 285 286 288 290 291 293 295 296 298 299 300 301 302 304 304 298 281 257 245 240 232 227 227 229 231 231 230 231 235 239 242 243 245 244 245 249 252
242 243 244 244 245 245 245 246 247 248 249 250 251 252 252 252 252 254 255 256 257 260 262 264 265 267 269 271 272 273 275 276 277 278 279 279 281 282 282 282 282 281 281 281 281 281 282 283 284 285 287 288 290 292 294 295 297 298 300 301 302 303 305 301 285 259 245 240 234 227 226 228 230 232 232 232 234 237 240 242 243 244 244 245 249
242 243 244 244 244 245 245 246 247 248 249 251 252 254 255 254 254 255 256 258 260 261 263 264 266 268 270 271 272 273 275 276 276 278 278 279 281 283 283 283 283 284 284 284 283 283 283 284 284 285 286 287 288 290 291 293 295 297 298 300 302 304 305 304 290 263 245 240 235 229 227 229 230 232 233 233 234 236 238 239 240 242 242 244 247
241 241 243 244 245 246 246 246 248 249 250 251 252 254 255 255 256 257 258 260 261 262 264 265 267 269 272 273 273 274 276 277 278 279 280 280 282 283 284 284 284 284 285 285 286 286 286 286 286 286 286 287 287 288 289 291 293 295 297 299 302 303 304 304 295 268 247 240 235 228 226 227 228 229 231 233 235 237 239 238 238 238 239 242 246
238 239 240 242 243 246 247 247 248 250 250 251 252 254 255 256 257 259 260 261 262 263 264 266 268 271 273 274 275 276 278 279 279 280 281 281 282 283 284 284 284 285 286 286 286 287 287 287 287 287 287 287 287 288 288 290 291 293 296 298 300 302 303 303 298 275 250 240 234 227 224 225 225 226 228 229 231 235 237 237 237 236 236 240 243
239 239 240 241 242 244 246 247 249 250 251 252 253 254 256 258 259 260 262 263 264 264 266 268 270 272 273 275 276 278 279 280 280 280 280 280 280 282 283 284 284 285 286 286 286 287 287 288 288 288 288 288 288 288 288 289 289 290 293 296 299 301 302 302 299 282 254 241 234 227 223 224 224 224 226 226 227 230 232 234 235 235 236 238 242
241 241 242 242 243 244 245 247 249 250 252 253 254 255 257 258 259 261 262 263 264 266 268 270 271 272 273 275 277 278 280 280 281 280 279 278 280 283 285 285 284 284 285 285 285 286 287 288 288 288 288 288 288 288 288 288 288 289 291 293 296 298 300 299 299 288 260 241 233 227 223 224 225 225 225 226 227 229 230 232 233 235 236 239 243
243 244 244 244 244 245 246 247 249 251 252 254 255 256 257 258 259 260 262 264 266 268 270 271 272 272 274 276 278 279 279 280 280 280 278 279 282 284 285 285 285 284 284 284 284 285 288 289 289 289 289 289 288 288 288 287 287 288 288 290 293 295 297 296 296 291 267 243 231 225 223 224 225 226 226 226 228 230 232 233 235 236 238 241 243
244 244 245 245 245 246 247 248 250 252 254 255 256 256 257 258 259 261 262 265 267 269 270 271 272 274 276 277 278 278 279 279 280 280 280 281 284 285 285 285 285 284 283 284 284 287 289 290 290 290 289 289 289 288 288 287 287 287 287 288 289 290 293 293 293 291 275 248 232 225 223 224 226 227 227 227 228 230 232 234 236 238 240 242 244
244 245 245 246 246 246 248 250 252 253 254 255 256 257 257 259 260 262 263 266 267 269 270 272 273 275 276 276 277 278 278 279 280 281 282 283 284 286 286 286 286 285 285 285 286 288 290 291 290 290 289 289 288 288 287 287 286 286 285 286 287 287 288 289 289 288 281 256 236 226 223 224 226 228 228 228 228 229 231 233 235 237 239 242 244
245 245 245 245 247 248 248 250 251 252 253 254 255 257 258 260 262 263 265 266 268 269 271 272 274 275 276 276 277 278 278 280 281 283 284 286 286 287 287 287 287 287 286 287 288 289 290 291 290 289 289 288 288 287 286 286 285 285 284 284 284 284 284 284 284 283 281 266 243 230 225 225 227 228 229 229 230 231 232 234 235 236 238 240 242
245 245 244 243 245 247 247 248 249 250 251 253 255 257 259 262 264 266 267 267 269 270 272 274 275 275 276 276 277 278 279 280 282 284 286 288 288 289 289 289 288 288 288 288 289 290 290 290 290 289 288 287 287 286 285 285 284 284 284 283 282 281 280 280 280 278 278 272 253 236 229 228 228 229 230 230 231 233 234 234 235 237 238 240 242
245 245 244 243 243 244 246 247 248 250 252 254 257 259 261 263 265 266 267 268 269 271 272 273 274 275 276 277 278 279 280 282 284 285 287 288 289 290 290 290 289 289 289 289 290 290 290 289 288 288 287 286 286 285 284 283 282 281 281 281 281 280 278 276 276 275 273 271 261 244 234 230 230 230 230 231 232 234 235 235 234 235 237 240 242
247 246 245 244 243 243 245 247 249 251 254 256 258 260 261 263 264 265 267 268 270 271 272 273 275 276 278 279 280 281 282 284 285 286 287 288 289 289 289 289 289 289 289 289 289 289 288 288 287 286 286 285 284 284 283 282 281 280 278 278 278 278 277 275 273 272 269 268 265 254 240 234 232 231 231 231 232 233 234 235 235 234 235 237 238
247 247 246 245 244 244 245 247 249 252 255 256 258 259 261 263 264 266 268 269 271 272 273 274 276 277 279 280 282 283 284 285 285 286 287 288 288 288 288 288 288 288 288 289 289 288 287 287 286 285 285 284 283 283 282 281 280 279 277 276 275 274 275 274 272 270 268 265 263 259 249 239 235 234 232 231 231 231 232 234 235 235 236 236 235
246 247 246 246 245 245 246 247 249 251 253 255 257 259 261 263 265 267 269 271 272 273 274 275 276 278 280 281 283 284 285 285 286 287 287 287 287 287 286 286 286 287 288 288 288 288 287 286 285 284 283 283 283 282 281 280 279 278 277 276 274 272 271 271 271 269 267 264 260 259 255 246 239 236 236 234 232 231 232 234 235 236 237 237 236
245 246 246 245 246 246 246 246 248 250 252 254 256 258 261 263 265 267 269 271 273 274 275 276 278 280 281 283 284 285 286 286 287 287 287 286 285 285 285 285 285 286 288 288 289 288 288 287 285 284 283 282 282 282 281 281 279 278 277 276 274 272 270 269 269 268 267 264 261 257 255 252 245 239 237 236 235 233 233 234 235 236 238 239 239
244 245 245 244 244 245 245 245 247 250 252 253 256 258 260 263 265 267 269 271 273 275 276 278 280 281 283 284 286 287 287 288 287 286 285 284 284 284 285 285 286 288 288 289 289 289 288 287 286 285 284 283 282 281 281 281 280 278 277 276 274 273 271 269 267 266 265 264 262 258 255 252 249 244 239 237 237 236 235 235 235 236 238 240 241
243 244 244 244 243 244 245 246 248 250 252 254 256 258 261 263 265 267 269 271 274 276 277 279 281 282 284 285 287 288 288 288 286 285 284 284 284 285 285 286 287 288 289 289 289 289 288 287 287 286 285 284 283 282 281 280 279 278 277 276 274 273 271 269 267 265 264 262 261 260 257 253 250 247 243 239 237 237 238 238 237 237 239 241 242
243 244 245 245 244 244 245 247 248 250 252 254 256 258 261 263 265 267 269 271 274 276 277 279 280 282 284 286 288 289 288 287 286 284 284 284 285 286 287 288 288 289 290 290 290 290 289 288 287 286 285 284 283 282 281 280 279 278 277 276 275 273 272 270 268 265 263 262 260 259 258 255 252 248 245 242 239 237 237 239 240 240 241 241 242
243 245 246 246 245 244 245 247 249 250 252 254 256 258 261 263 265 267 269 271 273 275 277 279 281 284 286 288 289 289 288 286 285 284 284 285 286 287 288 289 290 291 291 292 291 291 290 289 288 287 286 285 284 283 282 281 279 278 277 276 274 273 272 270 269 267 264 262 260 259 257 256 254 251 247 244 241 239 237 238 239 240 241 242 242
243 245 246 246 245 244 244 246 248 250 251 254 256 259 261 263 265 267 269 271 273 275 277 280 283 285 287 288 289 289 286 284 284 284 285 287 288 289 290 291 292 293 293 293 292 292 291 290 289 288 287 286 285 284 283 282 281 279 278 277 275 274 272 271 269 268 266 263 261 259 257 255 254 253 249 246 243 241 239 237 237 238 239 240 241
244 245 245 245 244 243 244 245 247 249 251 253 256 259 261 263 265 268 270 272 274 276 278 281 283 285 286 287 288 287 285 284 284 286 287 289 290 291 292 293 293 293 293 293 293 292 291 291 290 289 289 288 287 286 285 284 283 282 280 279 277 275 273 272 270 268 267 265 262 260 258 256 253 252 251 248 245 242 240 238 237 237 237 237 239
245 245 245 244 242 243 244 245 247 249 251 253 256 258 261 264 266 269 272 274 276 277 280 282 283 285 286 287 287 286 285 285 286 288 289 290 291 292 292 293 294 294 294 293 293 293 292 291 291 290 290 289 289 288 287 286 285 284 282 281 279 277 275 273 271 269 267 265 262 260 259 256 254 252 251 249 247 244 241 239 238 237 237 237 237
244 244 244 243 242 243 244 245 247 249 252 254 257 260 263 266 269 272 273 275 277 279 281 282 284 285 285 285 285 284 285 286 288 289 290 290 291 292 293 293 294 294 294 294 293 293 293 292 292 291 291 290 290 289 288 287 286 284 283 281 280 278 277 275 273 270 268 266 263 260 258 256 254 252 250 249 247 245 243 241 239 238 238 237 237
242 242 243 242 243 244 245 247 249 252 255 258 261 264 266 269 271 273 275 277 279 281 282 284 284 284 284 284 284 285 287 288 288 289 290 290 291 292 293 293 294 294 294 294 294 294 294 294 294 293 293 292 291 290 289 288 286 285 284 283 281 279 277 276 274 271 269 267 264 261 258 256 254 252 250 248 247 245 244 242 241 240 239 238 238
242 242 243 244 244 246 247 250 253 256 258 261 264 266 268 271 273 275 277 279 280 282 283 283 283 283 284 285 286 287 287 288 288 289 290 291 292 292 293 294 294 294 294 295 295 295 296 296 296 295 295 294 293 292 291 289 288 286 285 284 282 280 278 276 274 272 269 267 264 262 260 256 253 251 249 248 246 245 244 242 241 240 240 239 239
242 243 244 246 247 248 250 253 255 257 260 262 264 267 269 272 274 275 277 278 280 281 281 281 282 283 285 286 286 286 287 288 289 290 291 291 292 293 293 294 295 295 296 296 297 297 297 297 297 296 296 295 294 293 292 291 289 288 287 285 284 282 280 277 274 272 270 267 264 262 260 257 254 251 249 247 245 244 243 242 241 240 240 240 239
243 245 247 249 251 252 253 255 257 259 261 264 266 268 270 272 274 275 276 277 278 279 281 282 283 284 285 285 286 287 288 289 290 291 291 292 293 293 294 295 296 297 297 298 298 298 299 298 298 298 297 297 296 295 294 293 292 290 289 288 286 285 282 279 276 273 270 268 265 262 259 257 254 252 249 247 245 244 243 242 240 240 240 240 240
246 248 250 252 254 256 258 260 262 263 265 267 269 271 273 274 275 276 277 278 279 281 282 283 284 285 286 286 287 288 289 290 291 292 292 293 293 294 295 296 297 297 298 299 300 300 300 300 300 299 299 299 298 298 298 297 296 295 293 291 289 287 285 282 279 275 272 269 267 263 260 257 254 252 250 248 245 243 243 242 241 239 240 240 240
249 252 254 257 258 260 262 264 265 267 269 271 272 273 275 276 277 278 279 280 281 282 283 284 285 286 287 288 288 289 290 291 292 292 293 293 294 295 296 297 298 298 299 300 301 301 302 302 302 302 302 302 302 302 301 301 300 299 298 296 294 291 288 285 282 278 274 271 268 265 261 257 255 253 250 248 247 244 243 242 241 239 239 239 240
253 256 258 260 261 263 265 266 268 270 271 273 274 275 276 277 278 279 280 281 282 283 284 285 286 287 288 289 290 290 291 291 292 293 293 294 295 296 297 297 298 299 300 301 302 302 302 303 303 304 304 304 304 304 303 302 301 300 299 298 297 295 292 288 284 281 277 273 270 267 262 257 254 251 249 248 247 244 242 242 241 240 240 240 240
255 257 259 261 263 265 266 268 269 271 272 273 274 275 277 278 280 281 282 283 284 285 285 286 287 288 289 289 290 290 291 291 292 293 294 295 296 296 297 298 299 300 301 302 303 303 303 304 304 304 305 305 305 304 304 303 302 301 299 299 298 297 294 290 286 282 279 276 272 268 263 258 254 251 249 248 247 245 242 241 241 240 240 240 241